Location: Sommers-Bausch Observatory
(40.0037°N, 105.2635°W)
Time: 18:18:22
(UTC-06:00)

Amateur Radio Satellites - All Passes

Search period start: 06 July 2015 17:48
Search period end: 07 July 2015 17:48
Location: Sommers-Bausch Observatory, 40.0037°N, 105.2635°W

Satellite Date Start Highest point End Downlink Frequencies (MHz)
Time Altitude Azimuth
Cosmos 2491 06 Jul 17:58:18 18:03:16 15° 302° (WNW) 18:07:39 435.465 / 435.565
GONETS M04 06 Jul 18:18:41 18:21:13 12° 54° (NE) 18:24:26
AIST 2 06 Jul 18:32:12 18:34:17 13° 250° (WSW) 18:36:09 435.215
MOZHAYETS 4 06 Jul 18:43:12 18:46:46 21° 292° (WNW) 18:50:12
CUTE-I 06 Jul 18:46:09 18:51:29 69° 258° (WSW) 18:56:52 437.470
CUBESAT XI-V 06 Jul 19:15:42 19:20:24 76° 102° (ESE) 19:25:03 437.345
BRITE-PL 06 Jul 19:16:14 19:20:46 29° 70° (ENE) 19:25:08 437.365/2234.400
Cosmos 2504 06 Jul 19:21:05 19:25:07 14° 279° (W) 19:28:42 435.465 / 435.565
Cubesat XI-IV 06 Jul 19:21:52 19:26:41 32° 264° (W) 19:31:27 437.490
DANDE 06 Jul 19:32:14 19:34:54 62° 262° (W) 19:37:28 436.750
STRAND 1 06 Jul 19:32:34 19:37:18 36° 97° (E) 19:42:01 437.568
CUSAT 1 06 Jul 19:54:08 19:55:40 14° 266° (W) 19:57:07 437.405
COMPASS 1 06 Jul 19:58:26 20:00:12 13° 66° (ENE) 20:02:10 437.405
PRISM 06 Jul 20:01:15 20:05:27 68° 102° (ESE) 20:09:36 437.425
HO-68 06 Jul 20:03:04 20:09:43 45° 67° (ENE) 20:16:27 435.675
GONETS M04 06 Jul 20:11:41 20:20:19 65° 79° (ENE) 20:28:57
CUTE 1.7 + AOD 2 06 Jul 20:14:41 20:18:20 30° 71° (ENE) 20:22:03 437.475
GOMX 1 06 Jul 20:16:20 20:21:24 65° 75° (ENE) 20:26:09 467.674
CANX-2 06 Jul 20:18:13 20:22:04 36° 72° (ENE) 20:25:59 2200.000
Cosmos 2499 06 Jul 20:34:28 20:39:46 20° 64° (ENE) 20:45:41 435.465 / 435.565
DOVE 4 06 Jul 20:48:15 20:53:06 86° 81° (E) 20:57:41 437.250
BRITE-PL 06 Jul 20:54:13 20:59:11 35° 264° (W) 21:03:50 437.365/2234.400
CUBESAT XI-V 06 Jul 20:55:33 20:57:16 12° 297° (WNW) 20:58:44 437.345
UWE-3 06 Jul 20:57:23 21:00:03 17° 68° (ENE) 21:02:50 435.000/436.395/437.385
SEEDS 06 Jul 20:58:16 21:02:26 78° 77° (ENE) 21:06:39 437.485
M-CUBED/EXP-1 PRIME 06 Jul 20:59:38 21:02:43 19° 98° (E) 21:06:04 437.505
DELFI C3 06 Jul 21:02:23 21:04:56 17° 68° (ENE) 21:07:37 145.870
AAUSAT CUBESAT 2 06 Jul 21:02:57 21:07:01 58° 75° (ENE) 21:11:06 437.432
STRAND 1 06 Jul 21:12:04 21:16:22 27° 293° (WNW) 21:20:33 437.568
CINEMA 3 06 Jul 21:15:22 21:19:51 76° 76° (ENE) 21:24:09 145.822/145.860
DX 1 06 Jul 21:24:58 21:25:29 10° 63° (ENE) 21:26:16 434.975-435.025
COMPASS 1 06 Jul 21:31:23 21:35:27 54° 260° (W) 21:39:32 437.405
HUMSAT D 06 Jul 21:36:50 21:39:06 15° 67° (ENE) 21:41:31 437.325/437.525
ZACube-1 06 Jul 21:37:46 21:41:35 36° 72° (ENE) 21:45:24 437.345
PRISM 06 Jul 21:39:17 21:40:23 11° 296° (WNW) 21:41:15 437.425
UKube-1 06 Jul 21:40:07 21:42:17 14° 65° (ENE) 21:44:39 .
Oscar 11 06 Jul 21:40:11 21:44:27 69° 76° (ENE) 21:48:44 145.826/435.025
CUBEBUG 2 06 Jul 21:46:29 21:50:45 78° 77° (ENE) 21:54:57 437.445
CUTE 1.7 + AOD 2 06 Jul 21:51:00 21:54:18 21° 267° (W) 21:57:31 437.475
HO-68 06 Jul 21:51:10 21:57:36 34° 264° (W) 22:03:56 435.675
CANX-2 06 Jul 21:55:15 21:58:09 18° 268° (W) 22:00:58 2200.000
AUBIESAT-1 06 Jul 21:56:29 22:00:48 68° 106° (ESE) 22:05:23 437.475
GOMX 1 06 Jul 21:57:23 21:59:56 13° 270° (W) 22:02:09 467.674
GONETS M04 06 Jul 22:09:41 22:16:34 26° 277° (W) 22:23:07
AISAT 06 Jul 22:10:41 22:13:43 19° 67° (ENE) 22:16:55 437.250
FUNcube-1 06 Jul 22:12:18 22:16:30 90° 8° (N) 22:20:40 145.935
CUBEBUG 1 06 Jul 22:21:25 22:23:17 13° 65° (ENE) 22:25:23 437.445
50 SAT 06 Jul 22:25:39 22:28:47 25° 70° (ENE) 22:31:58 437.505
Cosmos 2499 06 Jul 22:25:55 22:33:54 83° 264° (W) 22:42:28 435.465 / 435.565
TIGRISAT 06 Jul 22:27:37 22:29:19 12° 89° (E) 22:31:18 435.000
UWE-3 06 Jul 22:32:22 22:36:20 38° 262° (W) 22:40:16 435.000/436.395/437.385
M-CUBED/EXP-1 PRIME 06 Jul 22:33:33 22:37:38 42° 292° (WNW) 22:41:56 437.505
DELFI C3 06 Jul 22:36:03 22:39:46 36° 263° (W) 22:43:30 145.870
AAUSAT CUBESAT 2 06 Jul 22:41:57 22:43:04 11° 272° (W) 22:43:56 437.432
ESTCUBE 1 06 Jul 22:51:17 22:55:16 31° 70° (ENE) 22:59:20 437.505/2401.250
DX 1 06 Jul 22:56:47 23:01:10 78° 256° (WSW) 23:05:35 434.975-435.025
VELOX 1 06 Jul 22:57:34 23:01:56 56° 73° (ENE) 23:06:20 145.980
UNISAT 6 06 Jul 23:06:37 23:10:40 35° 97° (E) 23:14:49 437.425
HUMSAT D 06 Jul 23:10:37 23:14:32 43° 262° (W) 23:18:26 437.325/437.525
SPROUT 06 Jul 23:13:09 23:15:00 13° 65° (ENE) 23:17:02 437.525
UKube-1 06 Jul 23:13:46 23:18:01 54° 260° (W) 23:22:17 .
ZACube-1 06 Jul 23:15:14 23:18:06 17° 268° (W) 23:20:49 437.345
QB50P1 06 Jul 23:21:30 23:24:31 20° 93° (E) 23:27:39 145.935-145.965
AUBIESAT-1 06 Jul 23:33:01 23:35:09 13° 299° (WNW) 23:37:08 437.475
NANOSAT C BR1 06 Jul 23:34:13 23:37:46 27° 95° (E) 23:41:22 145.865
DUCHIFAT 1 06 Jul 23:40:05 23:43:47 30° 96° (E) 23:47:31 145.980
TISAT 1 06 Jul 23:43:02 23:45:49 18° 67° (ENE) 23:48:45 437.305
BUGSAT 1 06 Jul 23:45:27 23:48:35 22° 94° (E) 23:51:46 437.445
AISAT 06 Jul 23:45:48 23:50:02 40° 262° (W) 23:54:16 437.250
PCSat 06 Jul 23:48:03 23:52:38 28° 49° (NE) 23:57:17 145.827
POLYITAN 1 06 Jul 23:48:29 23:52:28 40° 98° (E) 23:56:27 437.675
ANTELSAT 06 Jul 23:50:57 23:55:23 75° 284° (WNW) 23:59:53 437.575/2403.000
CUBEBUG 1 06 Jul 23:54:48 23:59:11 62° 259° (W) 00:03:36 437.445
50 SAT 07 Jul 00:00:24 00:03:23 21° 266° (W) 00:06:19 437.505
TIGRISAT 07 Jul 00:02:09 00:06:29 58° 286° (WNW) 00:10:53 435.000
QB50P2 07 Jul 00:17:35 00:21:50 89° 281° (W) 00:26:03 145.880/145.840
POPSAT HIP 1 07 Jul 00:17:35 00:21:49 88° 104° (ESE) 00:26:01 437.405
Cosmos 2499 07 Jul 00:21:54 00:26:10 15° 279° (W) 00:29:59 435.465 / 435.565
SO-50 07 Jul 00:22:39 00:26:41 25° 45° (NE) 00:30:45 436.795
ESTCUBE 1 07 Jul 00:28:28 00:32:11 24° 266° (W) 00:35:49 437.505/2401.250
VELOX 1 07 Jul 00:36:45 00:38:54 13° 270° (W) 00:40:50 145.980
UNISAT 6 07 Jul 00:43:54 00:47:16 21° 292° (WNW) 00:50:35 437.425
SPROUT 07 Jul 00:46:23 00:50:39 58° 260° (W) 00:54:54 437.525
QB50P1 07 Jul 00:56:41 01:00:29 33° 289° (WNW) 01:04:13 145.935-145.965
NANOSAT C BR1 07 Jul 01:10:06 01:13:32 24° 291° (WNW) 01:16:53 145.865
DUCHIFAT 1 07 Jul 01:16:13 01:19:27 21° 291° (WNW) 01:22:35 145.980
TISAT 1 07 Jul 01:17:22 01:21:20 38° 262° (W) 01:25:18 437.305
BUGSAT 1 07 Jul 01:20:37 01:24:04 27° 290° (WNW) 01:27:25 437.445
BEESAT 07 Jul 01:23:01 01:27:22 37° 71° (ENE) 01:31:48 436.000
POLYITAN 1 07 Jul 01:25:18 01:28:05 17° 293° (WNW) 01:30:44 437.675
PCSat 07 Jul 01:31:06 01:36:15 44° 248° (WSW) 01:41:20 145.827
SWISSCUBE 07 Jul 01:38:41 01:43:21 59° 74° (ENE) 01:48:07 437.505
RS-15 07 Jul 01:41:51 01:52:08 53° 112° (ESE) 02:02:49 29.354- 29.394
AIST 1 07 Jul 01:42:11 01:44:10 13° 68° (ENE) 01:46:22
ITUPSAT 1 07 Jul 01:45:20 01:50:04 62° 74° (ENE) 01:54:50 437.325
KKS-1 07 Jul 01:54:39 01:56:38 13° 64° (ENE) 01:58:50 437.445
SO-50 07 Jul 02:02:44 02:07:30 47° 243° (WSW) 02:12:08 436.795
Cosmos 2491 07 Jul 02:07:06 02:15:35 53° 76° (ENE) 02:24:03 435.465 / 435.565
Oscar 19 07 Jul 02:09:55 02:14:50 47° 99° (E) 02:19:47 437.125/150
ITAMSAT 1 07 Jul 02:28:41 02:32:14 19° 91° (E) 02:35:56 435.822/435.867
STARS 07 Jul 02:38:05 02:41:28 23° 68° (ENE) 02:44:57 437.465
Gurwin Techsat 1B 07 Jul 02:38:25 02:42:44 26° 93° (E) 02:47:10 435.225
YUBILEINY 07 Jul 02:39:34 02:47:10 37° 87° (E) 02:54:58 435.215
BEESAT 07 Jul 03:01:36 03:05:21 22° 267° (W) 03:09:01 436.000
AIST 1 07 Jul 03:18:01 03:22:15 50° 266° (W) 03:26:24
SWISSCUBE 07 Jul 03:19:05 03:21:41 14° 271° (W) 03:24:03 437.505
ITUPSAT 1 07 Jul 03:26:02 03:28:27 13° 271° (W) 03:30:37 437.325
KKS-1 07 Jul 03:28:25 03:32:49 61° 259° (W) 03:37:14 437.445
Oscar 19 07 Jul 03:50:04 03:53:55 21° 294° (WNW) 03:57:38 437.125/150
RS-15 07 Jul 03:54:15 04:04:45 48° 316° (NW) 04:15:32 29.354- 29.394
Cosmos 2491 07 Jul 04:04:35 04:12:07 32° 275° (W) 04:19:23 435.465 / 435.565
MOZHAYETS 4 07 Jul 04:06:48 04:10:52 33° 71° (ENE) 04:15:02
ITAMSAT 1 07 Jul 04:07:01 04:12:05 51° 288° (WNW) 04:17:05 435.822/435.867
JAS-2 07 Jul 04:10:12 04:16:54 57° 100° (E) 04:24:19 435.910
STARS 07 Jul 04:13:50 04:17:46 31° 263° (W) 04:21:41 437.465
Gurwin Techsat 1B 07 Jul 04:17:55 04:22:52 39° 290° (WNW) 04:27:44 435.225
HORYU 2 07 Jul 04:21:56 04:26:00 34° 97° (E) 04:30:05 437.375
YUBILEINY 07 Jul 04:35:34 04:43:52 47° 286° (WNW) 04:52:07 435.215
AO-7 07 Jul 04:36:09 04:44:07 47° 100° (E) 04:52:05 29.400- 29.500
MOZHAYETS 4 07 Jul 05:44:30 05:48:10 23° 267° (W) 05:51:47
JAS-2 07 Jul 05:56:01 06:01:43 29° 294° (WNW) 06:07:41 435.910
Cosmos 2504 07 Jul 05:56:11 06:03:04 75° 95° (E) 06:10:01 435.465 / 435.565
HORYU 2 07 Jul 05:58:58 06:02:28 22° 292° (WNW) 06:05:51 437.375
Cubesat XI-IV 07 Jul 06:01:34 06:03:38 13° 87° (E) 06:06:03 437.490
O/OREOS (USA 219) 07 Jul 06:03:12 06:05:01 13° 100° (E) 06:07:05 437.305
RS-15 07 Jul 06:13:06 06:21:03 21° 347° (NNW) 06:29:05 29.354- 29.394
ISS 07 Jul 06:16:57 06:18:47 15° 131° (SE) 06:20:43 145.825
CUBESAT XI-V 07 Jul 06:18:05 06:22:45 68° 75° (ENE) 06:27:27 437.345
VERMONT LUNAR 07 Jul 06:25:12 06:27:55 28° 155° (SSE) 06:30:40 437.305
AO-7 07 Jul 06:29:11 06:36:49 40° 298° (WNW) 06:44:20 29.400- 29.500
BEESAT 3 07 Jul 06:31:59 06:35:51 45° 117° (ESE) 06:39:49 437.485
STRAND 1 07 Jul 06:47:40 06:52:35 49° 72° (ENE) 06:57:35 437.568
BEESAT 2 07 Jul 06:48:23 06:52:23 54° 118° (ESE) 06:56:26 435.950
PRISM 07 Jul 06:50:28 06:54:26 44° 73° (ENE) 06:58:28 437.425
AIST 2 07 Jul 06:51:08 06:53:14 14° 110° (ESE) 06:55:34 435.215
DANDE 07 Jul 06:58:52 07:03:24 20° 93° (E) 07:07:29 436.750
CUTE-I 07 Jul 07:04:00 07:09:13 51° 99° (E) 07:14:24 437.470
CUSAT 1 07 Jul 07:15:20 07:20:50 34° 97° (E) 07:25:14 437.405
GONETS M04 07 Jul 07:21:12 07:24:27 13° 77° (ENE) 07:28:25
PHONESAT 2.4 07 Jul 07:26:44 07:29:13 19° 150° (SSE) 07:31:45 2401.200-2431.200
Cubesat XI-IV 07 Jul 07:39:04 07:44:27 77° 286° (WNW) 07:49:48 437.490
O/OREOS (USA 219) 07 Jul 07:39:37 07:44:00 56° 295° (WNW) 07:48:25 437.305
M-CUBED/EXP-1 PRIME 07 Jul 07:48:29 07:50:36 16° 62° (ENE) 07:52:53 437.505
Cosmos 2504 07 Jul 07:51:39 07:56:12 17° 296° (WNW) 08:00:27 435.465 / 435.565
ISS 07 Jul 07:51:41 07:54:53 56° 326° (NW) 07:58:06 145.825
CUBESAT XI-V 07 Jul 07:58:55 08:00:46 12° 273° (W) 08:02:18 437.345
VERMONT LUNAR 07 Jul 08:01:31 08:04:38 88° 171° (S) 08:07:45 437.305
BEESAT 3 07 Jul 08:11:06 08:14:04 19° 315° (NW) 08:16:58 437.485
GOMX 1 07 Jul 08:20:15 08:22:48 16° 91° (E) 08:25:31 467.674
AIST 2 07 Jul 08:27:14 08:31:25 55° 305° (NW) 08:35:37 435.215
PRISM 07 Jul 08:27:46 08:30:09 14° 269° (W) 08:32:23 437.425
BEESAT 2 07 Jul 08:28:03 08:30:48 17° 316° (NW) 08:33:28 435.950
STRAND 1 07 Jul 08:28:24 08:32:07 19° 269° (W) 08:35:41 437.568
RS-15 07 Jul 08:30:16 08:39:02 25° 22° (NNE) 08:48:21 29.354- 29.394
DANDE 07 Jul 08:39:38 08:46:32 59° 281° (W) 08:51:45 436.750
AUBIESAT-1 07 Jul 08:44:24 08:47:43 75° 72° (ENE) 08:51:13 437.475
SEEDS 07 Jul 08:44:46 08:46:52 14° 90° (E) 08:49:10 437.485
CUTE-I 07 Jul 08:44:57 08:48:58 21° 295° (WNW) 08:52:48 437.470
DOVE 4 07 Jul 08:48:43 08:51:50 21° 94° (E) 08:55:04 437.250
CUSAT 1 07 Jul 08:58:18 09:03:23 27° 284° (WNW) 09:07:23 437.405
BRITE-PL 07 Jul 08:59:41 09:03:57 84° 102° (ESE) 09:08:05 437.365/2234.400
PHONESAT 2.4 07 Jul 09:03:29 09:06:53 67° 165° (SSE) 09:10:19 2401.200-2431.200
GONETS M04 07 Jul 09:11:16 09:20:01 76° 95° (E) 09:28:46
CINEMA 3 07 Jul 09:11:43 09:14:24 17° 92° (E) 09:17:18 145.822/145.860
Cosmos 2499 07 Jul 09:15:20 09:17:11 11° 79° (E) 09:19:35 435.465 / 435.565
COMPASS 1 07 Jul 09:15:45 09:19:12 24° 94° (E) 09:22:43 437.405
HO-68 07 Jul 09:18:31 09:25:24 49° 99° (E) 09:32:18 435.675
M-CUBED/EXP-1 PRIME 07 Jul 09:22:26 09:25:17 26° 259° (W) 09:28:13 437.505
Cubesat XI-IV 07 Jul 09:22:50 09:23:46 10° 301° (WNW) 09:24:22 437.490
TIGRISAT 07 Jul 09:27:46 09:28:15 10° 64° (ENE) 09:28:58 435.000
Oscar 11 07 Jul 09:29:50 09:31:51 13° 89° (E) 09:34:06 145.826/435.025
ISS 07 Jul 09:29:54 09:31:50 15° 345° (NNW) 09:33:44 145.825
CUTE 1.7 + AOD 2 07 Jul 09:35:32 09:39:49 66° 101° (E) 09:44:05 437.475
VERMONT LUNAR 07 Jul 09:38:26 09:41:34 88° 5° (N) 09:44:42 437.305
CUBEBUG 2 07 Jul 09:39:02 09:41:39 16° 92° (E) 09:44:28 437.445
CANX-2 07 Jul 09:39:23 09:43:42 82° 102° (ESE) 09:48:00 2200.000
GOMX 1 07 Jul 09:57:21 10:01:12 36° 288° (WNW) 10:04:59 467.674
FUNcube-1 07 Jul 10:02:02 10:04:50 17° 92° (E) 10:07:48 145.935
UNISAT 6 07 Jul 10:05:27 10:09:04 28° 70° (ENE) 10:12:45 437.425
QB50P1 07 Jul 10:14:31 10:16:49 15° 66° (ENE) 10:19:17 145.935-145.965
DELFI C3 07 Jul 10:15:39 10:19:13 29° 96° (E) 10:22:48 145.870
SEEDS 07 Jul 10:18:51 10:22:59 48° 286° (WNW) 10:27:05 437.485
AAUSAT CUBESAT 2 07 Jul 10:21:47 10:25:58 66° 285° (WNW) 10:30:09 437.432
UWE-3 07 Jul 10:22:20 10:26:19 39° 98° (E) 10:30:25 435.000/436.395/437.385
DOVE 4 07 Jul 10:26:04 10:29:41 29° 289° (WNW) 10:33:17 437.250
NANOSAT C BR1 07 Jul 10:26:39 10:29:39 20° 68° (ENE) 10:32:46 145.865
DUCHIFAT 1 07 Jul 10:32:13 10:35:26 22° 69° (ENE) 10:38:43 145.980
BUGSAT 1 07 Jul 10:35:35 10:38:05 16° 67° (ENE) 10:40:45 437.445
POLYITAN 1 07 Jul 10:41:02 10:44:39 29° 70° (ENE) 10:48:20 437.675
PHONESAT 2.4 07 Jul 10:41:27 10:44:55 80° 1° (N) 10:48:22 2401.200-2431.200
RS-15 07 Jul 10:42:58 10:54:33 63° 51° (NE) 11:06:37 29.354- 29.394
DX 1 07 Jul 10:46:46 10:49:45 19° 93° (E) 10:52:52 434.975-435.025
CINEMA 3 07 Jul 10:47:55 10:51:48 37° 287° (WNW) 10:55:44 145.822/145.860
ANTELSAT 07 Jul 10:49:18 10:53:35 89° 77° (ENE) 10:57:52 437.575/2403.000
COMPASS 1 07 Jul 10:51:14 10:54:50 27° 290° (WNW) 10:58:22 437.405
VELOX 1 07 Jul 10:51:19 10:52:19 11° 88° (E) 10:53:37 145.980
HUMSAT D 07 Jul 10:55:08 10:58:47 29° 96° (E) 11:02:30 437.325/437.525
TIGRISAT 07 Jul 11:00:14 11:04:29 71° 258° (WSW) 11:08:44 435.000
Cosmos 2499 07 Jul 11:02:12 11:09:14 83° 96° (E) 11:16:27 435.465 / 435.565
UKube-1 07 Jul 11:02:18 11:05:50 25° 95° (E) 11:09:27 .
ZACube-1 07 Jul 11:02:25 11:06:41 88° 109° (ESE) 11:11:02 437.345
Oscar 11 07 Jul 11:04:10 11:08:24 51° 286° (WNW) 11:12:37 145.826/435.025
HO-68 07 Jul 11:06:41 11:12:55 33° 297° (WNW) 11:19:02 435.675
ISS 07 Jul 11:08:18 11:09:18 11° 5° (N) 11:10:19 145.825
POPSAT HIP 1 07 Jul 11:09:27 11:13:37 59° 75° (ENE) 11:17:48 437.405
QB50P2 07 Jul 11:09:34 11:13:45 62° 75° (ENE) 11:17:58 145.880/145.840
GONETS M04 07 Jul 11:11:11 11:17:56 23° 296° (WNW) 11:24:20
CUTE 1.7 + AOD 2 07 Jul 11:13:45 11:15:14 11° 295° (WNW) 11:16:30 437.475
CUBEBUG 2 07 Jul 11:14:34 11:18:33 40° 287° (WNW) 11:22:36 437.445
VERMONT LUNAR 07 Jul 11:15:28 11:18:19 33° 203° (SSW) 11:21:11 437.305
50 SAT 07 Jul 11:35:34 11:39:17 41° 98° (E) 11:43:02 437.505
AISAT 07 Jul 11:36:59 11:41:05 38° 98° (E) 11:45:12 437.250
FUNcube-1 07 Jul 11:37:23 11:41:19 38° 288° (WNW) 11:45:19 145.935
UNISAT 6 07 Jul 11:42:24 11:45:53 23° 266° (W) 11:49:16 437.425
CUBEBUG 1 07 Jul 11:44:51 11:48:24 24° 94° (E) 11:51:58 437.445
QB50P1 07 Jul 11:48:13 11:52:20 47° 261° (W) 11:56:26 145.935-145.965
DELFI C3 07 Jul 11:51:01 11:54:09 21° 291° (WNW) 11:57:11 145.870
UWE-3 07 Jul 11:59:42 12:02:37 18° 292° (WNW) 12:05:26 435.000/436.395/437.385
NANOSAT C BR1 07 Jul 12:01:24 12:05:18 34° 263° (W) 12:09:09 145.865
DUCHIFAT 1 07 Jul 12:07:20 12:11:05 30° 264° (W) 12:14:48 145.980
BUGSAT 1 07 Jul 12:09:14 12:13:16 43° 261° (W) 12:17:16 437.445
POLYITAN 1 07 Jul 12:17:10 12:20:35 23° 266° (W) 12:23:54 437.675
PHONESAT 2.4 07 Jul 12:19:30 12:22:53 54° 199° (SSW) 12:26:17 2401.200-2431.200
ESTCUBE 1 07 Jul 12:20:41 12:25:15 75° 103° (ESE) 12:29:46 437.505/2401.250
DX 1 07 Jul 12:22:09 12:26:10 37° 289° (WNW) 12:30:08 434.975-435.025
VELOX 1 07 Jul 12:25:02 12:29:24 64° 286° (WNW) 12:33:45 145.980
HUMSAT D 07 Jul 12:31:06 12:34:24 22° 291° (WNW) 12:37:37 437.325/437.525
SPROUT 07 Jul 12:34:09 12:37:38 24° 94° (E) 12:41:11 437.525
UKube-1 07 Jul 12:38:15 12:41:57 27° 291° (WNW) 12:45:33 .
ISS 07 Jul 12:43:54 12:46:36 23° 25° (NNE) 12:49:18 145.825
POPSAT HIP 1 07 Jul 12:48:38 12:49:56 11° 271° (W) 12:50:58 437.405
QB50P2 07 Jul 12:49:09 12:50:07 10° 272° (W) 12:50:50 145.880/145.840
YUBILEINY 07 Jul 12:51:02 12:56:10 17° 60° (ENE) 13:01:49 435.215
RS-15 07 Jul 12:55:59 13:06:40 40° 251° (WSW) 13:17:23 29.354- 29.394
Cosmos 2499 07 Jul 12:59:17 13:03:33 16° 298° (WNW) 13:07:31 435.465 / 435.565
TISAT 1 07 Jul 13:02:23 13:06:08 32° 96° (E) 13:09:54 437.305
50 SAT 07 Jul 13:11:21 13:13:36 14° 293° (WNW) 13:15:42 437.505
AISAT 07 Jul 13:14:14 13:17:26 19° 293° (WNW) 13:20:30 437.250
CUBEBUG 1 07 Jul 13:21:00 13:24:45 28° 290° (WNW) 13:28:24 437.445
Oscar 19 07 Jul 13:26:02 13:31:05 64° 74° (ENE) 13:36:11 437.125/150
SWISSCUBE 07 Jul 13:40:59 13:43:49 16° 90° (E) 13:46:51 437.505
ITAMSAT 1 07 Jul 13:45:47 13:50:08 28° 67° (ENE) 13:54:36 435.822/435.867
AO-7 07 Jul 13:47:35 13:50:57 13° 48° (NE) 13:54:47 29.400- 29.500
ITUPSAT 1 07 Jul 13:47:48 13:50:50 17° 91° (E) 13:54:01 437.325
PHONESAT 2.4 07 Jul 13:58:30 14:00:29 14° 212° (SSW) 14:02:25 2401.200-2431.200
Gurwin Techsat 1B 07 Jul 13:58:43 14:03:33 38° 70° (ENE) 14:08:29 435.225
ESTCUBE 1 07 Jul 14:00:05 14:01:33 11° 297° (WNW) 14:02:47 437.505/2401.250
SPROUT 07 Jul 14:10:03 14:13:42 27° 290° (WNW) 14:17:16 437.525
ISS 07 Jul 14:20:00 14:23:09 47° 221° (SW) 14:26:15 145.825
JAS-2 07 Jul 14:24:55 14:28:15 18° 62° (ENE) 14:31:54 435.910
PCSat 07 Jul 14:29:33 14:33:54 26° 109° (ESE) 14:38:24 145.827
TISAT 1 07 Jul 14:38:35 14:41:44 20° 292° (WNW) 14:44:46 437.305
YUBILEINY 07 Jul 14:45:46 14:54:36 85° 83° (E) 15:03:25 435.215
BEESAT 3 07 Jul 14:51:22 14:54:42 24° 48° (NE) 14:58:02 437.485
BEESAT 07 Jul 15:01:05 15:05:54 83° 284° (WNW) 15:10:42 436.000
Cosmos 2491 07 Jul 15:06:53 15:15:29 63° 92° (E) 15:24:10 435.465 / 435.565
Oscar 19 07 Jul 15:08:06 15:10:59 14° 271° (W) 15:13:36 437.125/150
BEESAT 2 07 Jul 15:08:20 15:11:52 28° 49° (NE) 15:15:24 435.950
AIST 2 07 Jul 15:13:26 15:14:20 11° 37° (NE) 15:15:25 435.215
SWISSCUBE 07 Jul 15:17:22 15:22:03 52° 287° (WNW) 15:26:41 437.505
HORYU 2 07 Jul 15:19:44 15:23:32 29° 69° (ENE) 15:27:24 437.375
KKS-1 07 Jul 15:20:33 15:24:15 26° 95° (E) 15:28:01 437.445
ITUPSAT 1 07 Jul 15:24:24 15:29:04 49° 288° (WNW) 15:33:40 437.325
ITAMSAT 1 07 Jul 15:24:44 15:29:31 35° 263° (W) 15:34:18 435.822/435.867
AO-7 07 Jul 15:34:06 15:42:13 60° 67° (ENE) 15:50:26 29.400- 29.500
Gurwin Techsat 1B 07 Jul 15:39:13 15:43:40 26° 266° (W) 15:48:01 435.225
Cosmos 2504 07 Jul 15:42:46 15:48:23 23° 67° (ENE) 15:54:35 435.465 / 435.565
AIST 1 07 Jul 15:46:09 15:50:33 84° 277° (W) 15:55:00
STARS 07 Jul 16:03:36 16:07:49 46° 99° (E) 16:12:03 437.465
JAS-2 07 Jul 16:07:50 16:12:55 55° 260° (W) 16:18:17 435.910
O/OREOS (USA 219) 07 Jul 16:11:23 16:15:02 24° 58° (ENE) 16:18:47 437.305
PCSat 07 Jul 16:11:59 16:17:08 43° 305° (NW) 16:22:17 145.827
SO-50 07 Jul 16:15:52 16:20:33 68° 119° (ESE) 16:25:25 436.795
BEESAT 3 07 Jul 16:29:05 16:32:41 31° 245° (WSW) 16:36:11 437.485
YUBILEINY 07 Jul 16:44:42 16:50:26 19° 280° (W) 16:55:41 435.215
BEESAT 2 07 Jul 16:46:25 16:49:52 26° 246° (WSW) 16:53:12 435.950
AIST 2 07 Jul 16:49:29 16:53:42 78° 57° (ENE) 16:57:50 435.215
CUTE-I 07 Jul 16:50:25 16:51:10 10° 59° (ENE) 16:52:16 437.470
HORYU 2 07 Jul 16:56:34 17:00:11 24° 265° (W) 17:03:46 437.375
KKS-1 07 Jul 16:57:04 17:00:51 27° 291° (WNW) 17:04:34 437.445
Cosmos 2491 07 Jul 17:05:37 17:13:03 28° 293° (WNW) 17:20:16 435.465 / 435.565
Cubesat XI-IV 07 Jul 17:22:11 17:26:06 22° 65° (ENE) 17:30:09 437.490
AO-7 07 Jul 17:28:21 17:35:31 30° 266° (W) 17:42:30 29.400- 29.500
MOZHAYETS 4 07 Jul 17:38:58 17:43:40 88° 103° (ESE) 17:48:19
STARS 07 Jul 17:41:11 17:43:56 16° 294° (WNW) 17:46:32 437.465
